Temperature
22 21 21 21 20 21 23 24 25 25 24 24 24 24 23 22 22 20 20 20 21 21 20 20 20 20 20 20 20 20 19 19 19 19 19 19 19 19 19 19 19 19 19 19 19 19 19 19 18
22 21 21 21 21 22 23 25 25 25 25 25 24 24 23 22 21 21 20 20 21 21 20 20 20 20 20 20 20 20 19 20 19 19 19 19 19 19 19 19 19 19 19 19 19 19 19 19 19
22 21 21 20 22 22 24 25 25 26 25 25 24 24 23 22 21 21 21 21 21 21 20 20 20 20 20 20 20 20 19 20 19 19 19 19 19 19 19 19 19 19 19 19 19 19 19 19 19
22 21 21 21 23 25 25 26 26 26 25 24 24 23 23 22 22 22 21 21 21 21 21 20 20 20 20 20 20 20 19 19 19 19 19 19 19 19 19 19 19 19 19 19 19 19 19 19 19
22 22 21 22 24 26 26 27 27 25 25 24 23 22 22 22 22 22 21 21 21 21 21 20 20 20 20 20 20 20 19 19 19 19 19 19 19 19 19 19 19 19 19 19 19 19 19 19 19
23 21 21 22 25 26 27 27 26 25 24 24 23 22 22 22 22 21 21 21 21 21 21 20 20 20 20 20 20 19 19 19 19 19 19 19 19 19 19 19 19 19 19 19 19 19 19 19 18
22 21 22 24 25 26 27 27 26 25 25 24 23 22 22 21 22 21 21 21 21 21 21 20 20 20 20 20 19 19 19 19 19 19 19 19 19 19 19 19 19 19 19 19 19 19 18 18 18
24 22 23 24 25 26 27 27 26 25 25 24 24 22 22 22 21 21 21 21 21 21 21 20 20 20 20 19 19 19 19 19 19 19 19 19 19 19 19 19 19 19 19 19 19 19 18 18 18
24 22 23 24 25 26 27 26 26 25 25 24 24 23 22 22 22 21 21 21 21 20 20 20 20 20 20 19 19 19 19 19 19 19 19 19 19 19 19 19 19 19 19 19 19 19 18 18 18
24 22 25 26 26 26 27 26 26 25 24 23 23 23 22 22 22 21 21 21 21 20 20 20 20 20 19 19 19 19 19 19 19 19 19 19 19 19 19 18 19 19 19 19 18 19 18 18 18
25 25 26 27 28 27 27 26 26 24 23 23 23 22 22 22 22 22 21 21 21 20 20 20 20 19 19 19 19 19 19 19 19 19 19 19 18 18 18 19 19 19 19 19 19 19 18 18 18
26 27 28 28 28 27 27 26 25 25 24 24 23 23 22 22 22 21 21 21 21 20 20 20 20 19 19 19 19 19 19 19 19 19 19 18 18 18 18 18 18 18 18 18 18 18 18 18 18
26 27 28 28 28 27 27 26 25 25 25 24 23 23 22 22 22 22 21 21 21 20 20 20 20 19 19 19 19 19 19 19 19 19 19 18 19 19 18 18 18 18 18 18 18 18 18 18 18
26 27 27 28 28 27 26 26 25 24 24 24 23 23 23 22 22 22 21 21 21 20 20 20 19 20 19 19 19 19 19 19 19 19 19 19 18 18 18 18 18 18 18 18 18 18 18 18 18
27 26 26 27 27 27 26 25 25 25 25 24 24 23 23 22 22 22 22 21 21 21 20 20 20 20 20 19 19 19 19 19 19 19 19 19 18 18 18 18 18 18 18 18 18 18 18 18 18
26 25 25 27 27 27 25 24 25 25 25 24 24 23 23 22 22 22 22 22 21 21 20 20 20 20 20 20 19 19 19 19 19 19 19 19 18 18 18 18 18 18 18 18 18 18 18 18 18
24 24 25 26 28 27 25 24 25 25 24 24 24 23 23 22 22 22 22 22 21 21 21 20 20 20 20 20 19 19 19 19 19 19 19 19 18 18 18 18 18 18 18 18 18 18 18 18 18
24 24 25 26 27 27 25 24 25 25 24 24 23 23 23 23 22 22 22 22 21 21 21 20 20 20 20 20 19 19 19 19 19 19 19 19 19 18 18 18 18 18 18 18 18 18 18 18 18
26 26 26 27 28 26 25 24 24 24 24 24 23 23 23 23 22 22 22 22 22 21 21 21 20 20 20 20 20 19 19 19 19 19 19 19 19 19 18 18 18 18 18 18 18 18 18 18 18
27 26 26 26 27 26 25 25 25 24 24 24 24 23 23 23 22 22 22 22 22 21 21 21 20 20 20 20 20 19 19 19 19 19 19 19 19 19 19 18 18 18 18 18 18 18 18 18 18
27 26 26 26 26 26 25 24 24 24 25 24 24 24 23 23 22 22 22 22 22 21 21 21 21 20 20 20 20 19 19 19 19 19 18 18 18 19 19 18 18 18 18 18 18 18 18 18 18
26 28 28 27 25 23 24 22 23 23 23 24 24 23 23 23 23 23 22 22 22 22 21 21 21 20 20 20 20 19 19 19 19 18 18 18 18 18 18 18 18 18 18 18 18 18 18 18 18
27 28 28 27 25 23 24 22 22 23 23 23 23 24 23 23 23 23 22 22 22 22 21 21 21 20 20 20 19 19 19 19 19 18 18 18 18 18 18 18 18 18 18 18 18 18 18 18 18
28 27 25 23 22 23 24 23 22 22 23 23 23 24 23 23 23 23 22 22 22 21 21 21 21 20 20 20 19 19 19 19 18 18 18 18 18 18 18 18 18 18 18 18 18 18 17 17 17
26 24 22 23 22 22 23 23 22 24 24 24 24 24 23 23 23 23 22 22 22 21 21 21 21 20 20 20 19 19 19 19 18 18 18 18 18 18 18 18 18 18 18 18 17 17 17 17 17
26 24 23 23 22 22 23 23 23 25 25 25 25 24 23 23 23 23 22 22 22 21 21 21 21 20 20 20 19 19 19 18 18 18 18 18 18 17 17 17 17 17 17 17 17 17 17 17 17
27 25 23 22 22 22 22 23 24 24 24 24 24 24 23 23 23 23 22 22 22 21 21 21 21 20 20 20 19 19 19 18 18 18 18 18 18 17 17 17 17 17 17 17 17 17 17 17 17
27 25 22 22 22 22 23 23 22 23 23 23 23 23 23 23 23 23 22 22 22 22 21 21 20 20 20 20 19 19 19 18 18 18 18 18 17 17 17 17 17 17 17 17 17 17 17 17 17
27 26 23 21 21 21 22 22 24 23 23 22 23 24 24 23 23 23 23 22 22 21 21 21 20 20 20 20 19 19 19 18 18 18 18 17 17 17 17 17 17 17 17 17 17 17 17 16 16
27 25 23 22 22 20 21 22 24 23 23 23 23 23 24 23 23 23 23 22 22 21 21 21 20 20 20 19 19 19 19 18 18 18 17 17 17 17 17 16 16 16 16 16 16 16 16 16 16
Wind_Speed
9 7 3 1 2 3 4 2 5 8 6 8 10 10 9 7 5 5 3 10 10 8 9 11 12 12 11 11 11 11 11 10 10 10 10 9 9 9 9 10 11 11 11 11 11 10 10 9 8
7 4 1 1 3 4 3 4 9 10 10 11 11 12 9 7 6 8 5 9 10 9 9 11 12 12 11 11 11 11 10 10 10 10 10 9 9 9 9 10 10 10 10 11 10 10 9 8 8
5 3 0 2 2 3 3 5 10 11 11 9 7 7 5 5 6 6 7 11 9 8 9 11 12 12 11 11 11 10 10 10 10 9 9 9 9 9 9 9 9 9 9 10 9 9 8 7 7
2 1 1 3 3 3 5 5 9 11 10 8 8 6 4 4 5 8 13 13 10 7 9 11 12 11 11 11 10 10 9 9 9 9 9 8 8 8 8 8 8 8 8 8 8 8 7 7 7
1 2 3 2 3 4 6 7 10 11 7 8 10 8 5 4 10 13 13 12 11 8 8 10 12 12 11 11 10 10 9 8 8 8 8 8 8 8 8 7 7 7 7 7 7 7 6 6 6
1 3 3 3 4 4 6 9 12 13 12 10 9 7 3 5 11 11 10 10 9 9 7 8 11 11 11 10 10 10 9 8 8 7 7 7 7 6 6 6 6 5 5 6 6 5 5 5 5
2 2 1 4 4 5 6 7 9 10 10 7 7 6 4 5 8 10 9 9 8 8 7 6 7 8 9 9 9 9 8 7 7 7 7 7 6 5 5 5 5 4 4 5 5 5 5 4 4
2 2 1 2 5 4 5 6 8 9 8 8 6 7 6 6 9 10 9 8 7 5 5 4 4 5 5 6 8 7 7 6 6 6 6 6 5 4 4 4 4 3 3 4 4 4 4 4 4
2 3 1 3 4 4 7 11 7 8 9 6 5 6 9 12 12 11 9 7 6 5 3 3 3 3 4 5 6 6 6 5 4 4 4 4 3 3 2 2 3 3 3 3 3 3 3 3 3
3 2 3 4 5 6 9 10 7 7 10 8 9 10 12 12 11 11 9 8 6 4 3 3 3 3 3 4 4 4 4 4 3 2 2 2 2 3 3 3 3 3 3 3 3 3 2 1 1
3 3 2 3 6 8 8 7 6 9 7 9 13 13 11 11 10 10 9 7 6 5 4 3 2 3 3 2 3 3 3 2 2 2 3 2 2 2 3 3 3 3 3 3 2 2 2 1 1
2 1 3 4 6 9 9 7 7 8 8 11 14 13 11 11 9 9 9 7 6 6 4 3 2 2 2 2 3 3 2 2 2 3 4 3 2 1 2 2 2 2 2 1 2 1 2 2 2
2 1 2 4 8 9 10 9 9 9 12 13 14 13 12 11 9 8 8 7 6 5 4 3 3 3 2 2 2 2 2 2 3 3 3 3 2 2 2 1 1 2 2 2 1 1 1 1 1
1 0 1 3 7 8 11 8 8 9 12 13 13 11 11 11 10 8 8 7 5 5 4 3 2 2 3 2 2 1 2 2 2 2 3 3 3 2 2 1 1 1 2 2 1 1 1 1 1
1 2 2 2 6 7 10 6 7 11 11 12 11 10 11 10 10 9 8 7 6 5 3 3 3 2 2 2 2 1 1 2 2 2 2 3 2 2 1 1 1 1 2 2 1 0 0 1 1
3 3 1 3 5 6 8 5 7 10 11 10 9 11 10 8 9 9 9 7 6 6 4 2 3 3 2 2 1 1 2 2 1 2 2 2 2 2 1 1 1 1 1 1 1 0 1 0 0
3 0 2 2 5 5 5 5 7 10 11 10 9 9 9 9 8 8 8 8 7 6 5 3 3 3 2 1 1 1 2 2 1 1 1 1 2 2 2 1 1 1 0 0 1 0 1 1 0
4 3 2 3 4 5 4 4 8 10 11 11 10 8 9 10 9 8 8 8 7 6 5 4 3 2 2 1 1 1 1 0 1 1 1 1 1 1 2 1 1 0 1 1 1 0 0 1 1
4 3 3 3 3 5 5 6 9 10 10 10 9 9 9 9 8 8 8 8 7 5 5 3 3 2 2 1 1 1 0 0 0 1 1 1 1 1 1 0 0 0 0 1 1 1 0 0 1
3 2 1 2 1 3 5 5 8 10 12 12 12 11 10 9 7 7 7 7 6 6 5 4 3 2 2 1 1 1 1 1 1 1 1 1 1 1 1 1 0 0 0 1 1 1 1 1 0
2 5 4 3 2 4 6 1 3 5 6 8 9 9 10 12 11 9 8 7 6 6 5 4 3 3 2 1 1 2 2 2 2 2 1 1 0 0 0 0 0 0 0 0 1 1 2 1 1
4 6 6 6 3 1 3 1 5 5 6 8 9 9 9 9 10 10 9 8 8 7 6 4 4 3 2 2 3 3 2 1 1 1 1 1 1 0 0 0 0 0 0 1 1 1 2 2 1
6 6 4 4 3 1 1 2 6 3 6 9 10 11 10 10 11 11 10 9 8 7 6 5 4 3 3 3 3 3 2 1 0 1 2 1 2 1 1 0 0 1 1 1 1 1 1 1 2
4 4 6 5 4 1 4 3 5 5 9 8 9 10 10 10 9 9 9 8 7 6 6 5 5 3 3 3 3 3 2 1 2 2 2 1 2 2 1 1 1 1 2 2 2 2 1 1 2
5 5 3 5 4 4 2 2 7 7 8 9 11 11 10 9 9 9 9 8 8 7 7 6 6 4 3 3 3 2 2 1 1 1 0 1 1 1 2 2 2 2 2 2 1 1 1 1 2
4 8 7 4 3 4 3 2 6 4 4 6 9 10 9 9 9 10 10 10 9 8 7 6 6 5 4 4 3 2 2 1 1 0 0 0 1 1 2 2 2 2 1 1 1 1 2 1 1
4 3 8 6 2 0 3 3 4 3 4 5 7 8 9 10 10 9 9 10 9 8 7 7 7 6 5 4 3 2 2 1 1 0 0 0 1 1 2 2 2 2 2 1 1 1 2 1 1
6 6 5 5 4 1 3 3 3 3 3 5 6 7 8 8 8 8 8 8 8 8 7 7 7 6 6 5 4 3 2 1 1 1 0 1 1 1 2 2 2 2 2 2 1 2 2 1 2
1 2 4 4 5 6 3 5 5 7 7 7 8 8 8 8 8 7 7 7 7 7 7 6 6 6 5 5 4 3 2 2 1 1 1 1 1 1 1 2 1 1 1 1 1 2 2 2 2
4 5 6 4 2 4 4 6 4 7 7 8 8 7 7 7 7 7 7 7 7 7 6 7 6 6 6 5 4 3 2 2 1 2 1 1 1 1 1 1 1 1 1 1 1 2 2 2 2
Wind_Direction
164 160 168 212 36 49 68 88 95 82 64 65 76 82 81 66 88 120 145 142 139 144 146 141 137 133 129 125 121 118 115 115 115 114 113 111 111 113 119 131 136 141 144 146 145 148 150 151 154
162 166 178 26 66 73 63 85 88 97 114 103 81 82 77 68 84 110 123 144 142 141 142 142 141 137 134 130 125 122 119 117 116 114 113 110 110 109 114 124 134 140 144 147 149 152 154 157 160
176 187 100 42 72 115 116 102 102 104 104 95 86 67 77 100 106 132 152 147 139 135 138 143 142 139 138 135 129 127 124 122 120 117 115 111 111 114 118 121 130 137 142 147 150 154 158 163 166
166 112 47 67 101 129 125 127 113 105 85 79 94 72 64 89 120 141 144 142 135 134 139 144 141 140 140 139 136 135 131 128 127 124 121 117 115 117 121 124 128 134 141 147 151 156 163 171 176
116 78 52 65 102 97 104 118 108 101 91 92 94 97 76 72 111 131 138 138 140 143 146 149 141 138 140 140 138 137 135 132 130 129 127 123 123 121 121 125 127 132 142 151 156 159 168 180 186
42 64 71 93 97 90 92 102 102 102 111 107 99 101 90 113 119 131 133 134 139 142 142 145 145 142 143 140 135 132 130 128 128 130 131 131 132 130 126 127 129 134 146 158 163 168 178 190 202
106 77 133 141 116 104 105 99 102 109 110 108 110 95 106 116 123 126 125 127 126 130 133 144 145 149 154 152 142 135 130 129 131 129 128 130 133 136 138 139 140 140 152 169 177 184 190 201 211
169 105 51 109 112 106 110 92 97 101 99 114 110 118 144 150 128 121 118 114 116 122 128 135 143 149 161 164 156 146 138 130 128 129 131 140 142 144 145 153 160 153 159 177 188 191 201 207 208
139 77 129 155 135 136 112 99 83 80 96 89 86 116 138 134 121 116 113 105 113 118 120 126 144 154 159 165 159 160 149 140 138 134 135 144 160 179 184 179 182 178 179 190 198 194 204 203 211
129 135 190 172 150 135 117 116 117 94 88 91 92 104 120 123 122 124 125 122 128 138 139 138 137 142 147 153 154 165 163 162 158 149 166 166 178 197 197 211 206 201 204 211 217 220 220 216 245
145 172 131 106 127 124 113 109 105 115 111 134 134 133 132 126 123 125 129 130 134 136 137 138 140 155 156 161 158 165 170 173 175 179 193 194 192 207 207 218 238 237 234 246 249 255 242 222 250
127 172 154 119 115 118 120 112 104 114 138 141 138 141 136 134 136 135 134 133 127 117 117 126 131 139 163 162 164 174 179 192 192 198 194 176 163 169 179 203 225 234 236 250 253 259 259 242 237
88 89 110 132 116 116 113 114 111 119 130 131 131 132 135 136 133 131 129 126 122 121 127 141 128 126 132 132 163 144 169 190 193 199 194 175 157 172 173 205 221 229 220 204 211 254 284 264 239
225 340 105 127 117 120 118 118 106 133 134 132 135 136 139 138 135 127 123 122 125 128 139 147 124 117 119 123 122 132 166 172 155 163 173 168 168 164 174 188 209 230 206 206 202 202 218 224 187
86 44 22 140 129 133 113 98 132 151 139 135 138 139 138 140 140 141 144 140 140 139 141 145 136 109 108 119 123 144 160 142 145 177 178 172 173 179 167 159 235 254 223 197 172 233 196 191 184
28 52 19 244 149 144 115 141 159 151 140 140 142 142 140 143 148 152 149 144 143 137 134 136 131 112 99 104 124 157 157 146 173 197 184 192 189 177 160 154 256 248 206 142 156 151 101 123 198
16 74 237 250 175 142 118 163 172 154 144 151 155 152 150 150 156 158 157 154 151 147 142 136 115 118 125 120 126 126 135 150 185 194 201 215 200 177 161 191 245 216 105 113 228 137 158 162 226
226 224 222 221 186 138 121 156 159 164 157 162 164 162 160 160 167 162 160 157 152 149 144 137 118 118 120 80 60 54 62 93 159 180 221 221 222 191 165 199 292 74 79 28 29 105 138 172 186
196 197 233 245 163 133 144 155 170 173 167 168 169 169 169 171 170 159 155 151 144 139 131 127 122 121 104 81 83 89 279 252 267 232 225 216 218 181 157 168 330 81 134 243 230 173 88 262 115
183 169 247 321 76 108 139 155 173 176 180 178 175 174 171 168 165 165 158 152 150 149 145 133 134 134 133 146 169 173 181 205 192 278 283 237 226 212 175 151 227 235 135 337 313 172 162 251 156
230 188 193 184 32 62 100 11 218 194 182 180 183 177 174 172 174 176 171 162 152 154 158 153 147 134 133 129 91 66 55 35 29 360 345 308 259 126 126 164 69 33 114 248 268 216 190 229 264
232 209 182 160 121 236 127 213 269 203 197 193 190 186 187 181 176 176 174 165 165 164 157 147 143 133 127 119 106 104 104 104 257 263 294 321 312 357 22 98 81 38 18 248 260 226 208 187 250
213 201 167 159 142 93 57 135 272 196 208 211 200 192 187 183 182 177 172 172 170 164 159 157 143 136 128 117 122 111 98 133 335 19 28 6 342 332 347 21 300 322 317 288 293 284 225 190 205
148 76 42 43 70 359 238 169 253 220 208 202 198 191 182 178 175 169 164 157 159 163 161 158 147 146 142 126 119 119 114 76 56 37 33 4 342 342 333 304 308 300 309 298 286 272 244 236 226
104 93 32 0 12 265 262 166 241 235 202 186 178 178 176 170 168 164 159 159 164 168 166 165 157 154 149 135 131 133 136 114 104 81 45 359 347 334 317 322 313 312 298 293 309 318 288 259 243
163 138 156 190 220 272 335 246 261 249 177 154 158 165 166 168 172 173 169 168 169 169 169 166 162 160 154 146 150 135 128 127 118 109 102 331 281 290 317 335 331 331 329 334 344 341 306 303 270
145 175 167 143 142 46 300 299 323 62 104 132 147 155 164 172 177 179 174 169 168 168 173 173 166 164 163 161 156 138 132 123 107 87 80 331 304 318 343 335 341 343 353 4 10 347 319 312 289
146 155 98 118 148 217 283 263 230 204 164 151 149 158 169 170 173 175 173 170 170 171 173 173 167 170 172 167 166 153 161 172 171 125 7 321 314 331 345 336 336 340 347 355 2 339 323 326 309
58 104 108 123 149 153 206 263 221 193 172 162 166 164 154 160 173 176 176 175 170 171 170 169 170 168 165 168 167 160 166 172 161 187 241 272 297 312 326 321 326 323 326 329 339 325 337 335 321
164 166 139 146 221 165 166 258 238 172 164 156 154 158 150 153 162 169 169 166 166 170 175 178 178 176 178 175 166 167 170 166 187 240 249 254 288 290 286 297 307 297 312 309 303 309 328 318 312
Height
1513 1513 1513 1514 1515 1521 1520 1513 1505 1504 1505 1505 1504 1505 1508 1511 1515 1523 1520 1518 1519 1518 1518 1518 1518 1518 1517 1517 1516 1516 1516 1516 1516 1516 1516 1515 1514 1513 1512 1512 1513 1514 1516 1518 1520 1521 1523 1524 1525
1513 1513 1515 1515 1520 1530 1523 1509 1506 1505 1506 1506 1507 1508 1510 1513 1515 1517 1518 1519 1520 1519 1519 1519 1519 1519 1518 1518 1518 1518 1518 1517 1517 1517 1517 1516 1515 1514 1513 1513 1515 1516 1518 1519 1521 1522 1523 1524 1525
1513 1514 1516 1517 1522 1526 1520 1508 1506 1506 1506 1506 1509 1511 1513 1516 1517 1518 1519 1520 1520 1520 1520 1520 1520 1519 1519 1519 1519 1519 1519 1518 1518 1518 1518 1518 1517 1516 1516 1516 1517 1518 1519 1520 1521 1522 1523 1524 1524
1514 1515 1517 1521 1522 1513 1509 1507 1505 1507 1509 1509 1510 1514 1516 1518 1518 1519 1520 1521 1521 1521 1521 1521 1521 1520 1520 1520 1520 1520 1520 1519 1519 1520 1519 1519 1518 1518 1518 1518 1519 1519 1520 1521 1522 1523 1523 1524 1524
1514 1515 1520 1524 1518 1510 1506 1505 1506 1507 1510 1512 1512 1517 1519 1521 1520 1520 1521 1522 1522 1522 1523 1522 1522 1521 1521 1521 1521 1521 1521 1521 1521 1521 1520 1520 1520 1519 1520 1520 1520 1521 1521 1522 1522 1523 1523 1524 1524
1516 1516 1527 1529 1518 1510 1506 1506 1507 1509 1512 1514 1515 1518 1522 1523 1522 1522 1523 1524 1524 1524 1524 1524 1524 1523 1523 1523 1523 1523 1523 1522 1522 1522 1522 1521 1521 1521 1521 1521 1521 1522 1522 1523 1523 1523 1524 1524 1523
1517 1519 1525 1522 1518 1513 1509 1507 1508 1510 1513 1515 1516 1519 1523 1524 1524 1524 1524 1525 1525 1525 1525 1525 1525 1525 1525 1524 1524 1524 1524 1524 1523 1523 1523 1523 1523 1523 1523 1522 1523 1523 1523 1524 1524 1524 1524 1524 1523
1516 1519 1522 1521 1519 1515 1509 1509 1511 1511 1514 1516 1517 1519 1523 1525 1525 1525 1526 1526 1527 1527 1527 1527 1526 1526 1526 1526 1526 1526 1525 1525 1524 1524 1524 1524 1524 1524 1524 1524 1524 1524 1524 1524 1524 1524 1524 1523 1523
1517 1523 1526 1520 1517 1514 1510 1511 1514 1514 1515 1517 1518 1519 1522 1525 1526 1526 1527 1527 1528 1528 1528 1528 1527 1527 1527 1527 1527 1527 1526 1526 1526 1525 1525 1525 1524 1524 1524 1524 1524 1524 1524 1524 1524 1524 1524 1524 1523
1516 1524 1518 1510 1509 1510 1511 1512 1514 1517 1517 1519 1521 1523 1524 1525 1526 1526 1527 1528 1528 1528 1528 1528 1528 1528 1527 1527 1527 1527 1527 1527 1526 1526 1526 1525 1525 1525 1525 1525 1525 1525 1525 1525 1525 1524 1524 1524 1523
1513 1516 1510 1508 1507 1509 1511 1513 1514 1516 1520 1520 1521 1523 1525 1526 1527 1527 1528 1529 1529 1529 1529 1528 1528 1528 1528 1528 1528 1528 1527 1527 1527 1526 1526 1526 1526 1526 1525 1525 1525 1525 1525 1525 1525 1524 1524 1524 1523
1513 1510 1508 1509 1508 1509 1511 1513 1516 1516 1519 1520 1521 1523 1525 1527 1527 1528 1529 1529 1530 1530 1529 1529 1529 1529 1528 1528 1528 1528 1528 1527 1527 1527 1527 1526 1526 1526 1526 1526 1526 1526 1526 1525 1525 1524 1524 1524 1523
1512 1511 1509 1509 1509 1510 1512 1514 1516 1519 1520 1521 1523 1525 1526 1527 1528 1529 1530 1530 1530 1530 1530 1530 1529 1529 1529 1529 1528 1528 1528 1528 1527 1527 1527 1527 1526 1526 1526 1526 1526 1526 1525 1525 1525 1524 1524 1524 1523
1512 1511 1510 1510 1511 1512 1514 1517 1518 1522 1522 1523 1525 1526 1527 1528 1529 1530 1530 1531 1531 1531 1531 1530 1530 1529 1529 1529 1529 1528 1528 1528 1528 1527 1527 1527 1527 1526 1526 1526 1526 1526 1525 1525 1525 1525 1524 1524 1523
1512 1513 1512 1510 1511 1513 1515 1521 1520 1522 1523 1525 1526 1527 1528 1529 1530 1530 1530 1531 1531 1531 1531 1531 1530 1530 1530 1529 1529 1529 1529 1529 1528 1528 1528 1528 1527 1527 1526 1526 1526 1526 1525 1525 1525 1524 1524 1523 1523
1514 1518 1523 1513 1511 1513 1519 1530 1522 1523 1523 1525 1527 1528 1529 1530 1530 1530 1531 1531 1531 1531 1531 1531 1531 1531 1530 1530 1529 1529 1529 1529 1528 1528 1528 1528 1528 1527 1527 1526 1526 1525 1525 1525 1524 1524 1523 1523 1523
1523 1530 1527 1517 1510 1512 1518 1526 1522 1522 1523 1525 1526 1528 1529 1529 1530 1531 1531 1531 1531 1532 1532 1531 1531 1531 1531 1530 1530 1529 1529 1529 1529 1529 1528 1528 1528 1527 1527 1526 1526 1525 1525 1524 1524 1523 1522 1522 1522
1531 1529 1525 1520 1512 1512 1518 1522 1521 1522 1522 1524 1525 1527 1528 1528 1529 1530 1531 1531 1532 1532 1532 1532 1532 1531 1531 1531 1531 1530 1530 1530 1529 1529 1528 1528 1528 1527 1527 1526 1526 1525 1524 1524 1523 1522 1522 1522 1521
1516 1521 1523 1516 1509 1513 1519 1521 1521 1521 1522 1523 1524 1525 1526 1527 1529 1529 1530 1531 1531 1532 1532 1532 1532 1532 1531 1531 1531 1530 1530 1530 1529 1529 1529 1528 1528 1527 1526 1526 1525 1525 1524 1523 1523 1522 1521 1521 1521
1515 1522 1522 1516 1510 1514 1520 1521 1519 1519 1519 1520 1521 1523 1524 1526 1528 1529 1530 1530 1531 1531 1532 1532 1532 1532 1532 1531 1531 1531 1530 1530 1530 1529 1529 1528 1528 1527 1526 1525 1525 1524 1523 1523 1522 1521 1521 1520 1520
1515 1519 1520 1520 1515 1515 1522 1529 1523 1519 1520 1521 1521 1521 1523 1524 1526 1528 1529 1529 1530 1531 1531 1531 1531 1532 1532 1532 1531 1531 1530 1530 1530 1529 1528 1528 1527 1526 1526 1525 1524 1523 1523 1522 1521 1521 1520 1519 1519
1517 1507 1508 1513 1525 1533 1528 1547 1530 1521 1520 1519 1520 1521 1522 1524 1525 1526 1527 1528 1529 1530 1531 1531 1531 1531 1532 1531 1531 1530 1530 1529 1529 1529 1528 1528 1527 1526 1525 1525 1524 1523 1522 1521 1521 1520 1519 1519 1518
1507 1501 1505 1510 1521 1531 1530 1543 1535 1521 1522 1518 1517 1518 1519 1521 1523 1524 1525 1527 1528 1529 1530 1531 1531 1531 1531 1531 1531 1530 1529 1529 1529 1528 1528 1527 1526 1526 1525 1524 1523 1522 1521 1520 1520 1519 1518 1518 1517
1499 1505 1512 1520 1530 1546 1534 1541 1539 1524 1517 1514 1514 1516 1517 1519 1521 1523 1525 1526 1528 1529 1530 1530 1530 1530 1531 1530 1530 1530 1529 1529 1528 1527 1527 1526 1525 1525 1524 1523 1522 1521 1520 1519 1518 1518 1517 1516 1516
1502 1522 1545 1548 1555 1551 1530 1536 1532 1512 1507 1507 1510 1513 1516 1517 1520 1521 1523 1525 1526 1527 1528 1529 1529 1529 1530 1530 1529 1529 1529 1528 1528 1527 1526 1525 1524 1524 1523 1522 1521 1519 1518 1517 1517 1516 1515 1515 1514
1505 1517 1544 1557 1559 1549 1534 1536 1522 1506 1504 1506 1509 1511 1514 1516 1519 1520 1521 1523 1524 1526 1527 1528 1528 1528 1529 1529 1529 1529 1528 1528 1527 1526 1525 1524 1523 1523 1522 1521 1519 1518 1517 1516 1515 1514 1514 1513 1512
1504 1513 1515 1535 1542 1551 1542 1529 1515 1506 1506 1507 1509 1511 1513 1515 1517 1519 1520 1521 1523 1525 1526 1527 1527 1528 1528 1528 1528 1528 1527 1527 1526 1525 1524 1523 1523 1522 1521 1520 1519 1517 1516 1515 1514 1513 1512 1511 1510
1493 1502 1519 1534 1549 1556 1545 1536 1530 1516 1512 1509 1509 1510 1511 1513 1516 1518 1520 1521 1522 1523 1525 1526 1526 1527 1527 1527 1527 1526 1526 1526 1525 1524 1523 1522 1521 1520 1519 1518 1517 1516 1515 1514 1512 1511 1510 1509 1509
1499 1505 1515 1529 1535 1552 1554 1542 1510 1509 1508 1508 1508 1509 1510 1513 1515 1517 1519 1520 1522 1523 1524 1525 1525 1525 1525 1525 1525 1525 1524 1524 1524 1523 1522 1521 1520 1519 1518 1517 1516 1514 1513 1512 1511 1510 1509 1508 1507
1492 1500 1512 1529 1534 1537 1544 1536 1502 1503 1504 1505 1507 1509 1510 1512 1514 1516 1518 1519 1521 1521 1522 1523 1523 1523 1523 1523 1523 1523 1523 1523 1522 1521 1520 1520 1518 1517 1516 1515 1514 1513 1512 1510 1509 1508 1507 1506 1505